CW7986 Weather Reports


Display with metric or nautical units.
time (UTC)temp
F
wind
direction
speed
MPH
gust
MPH
rain 1hr
in
rain 24hr
in
rain mn
in
humidity
%
barometer
mb
20260509012502 80 299 4.0 9.0 0.00 0.00 0.00 79 1012.4
20260509012002 80 297 4.0 9.0 0.00 0.00 0.00 78 1012.3
20260509011502 80 294 4.0 9.0 0.00 0.00 0.00 78 1012.3
20260509011002 81 293 5.0 11.0 0.00 0.00 0.00 77 1012.3
20260509010503 81 291 5.0 12.0 0.00 0.00 0.00 77 1012.3
20260509010002 80 290 5.0 12.0 0.00 0.00 0.00 77 1012.2
20260509005502 80 292 4.0 9.0 0.00 0.00 0.00 77 1012.2
20260509005002 81 291 4.0 7.0 0.00 0.00 0.00 76 1012.2
20260509004502 81 286 4.0 7.0 0.00 0.00 0.00 76 1012.1
20260509004023 81 287 3.0 6.0 0.00 0.00 0.00 76 1012.1
20260509003502 81 287 4.0 10.0 0.00 0.00 0.00 76 1012.0
20260509003023 81 290 4.0 10.0 0.00 0.00 0.00 76 1011.9
20260509002503 81 293 4.0 8.0 0.00 0.00 0.00 76 1011.8
20260509002002 81 291 5.0 10.0 0.00 0.00 0.00 76 1011.8
20260509001502 81 287 4.0 10.0 0.00 0.00 0.00 76 1011.8
20260509001002 81 287 4.0 10.0 0.00 0.00 0.00 76 1011.7
20260509000523 81 285 5.0 10.0 0.00 0.00 0.00 76 1011.6
20260509000003 81 281 6.0 10.0 0.00 0.00 0.00 76 1011.6
20260508235503 81 283 6.0 10.0 0.00 0.00 0.00 76 1011.5
20260508235025 82 285 6.0 11.0 0.00 0.00 0.00 76 1011.4
20260508234503 82 287 5.0 11.0 0.00 0.00 0.00 75 1011.3
20260508234002 82 289 4.0 11.0 0.00 0.00 0.00 76 1011.3
20260508233502 82 293 5.0 10.0 0.00 0.00 0.00 76 1011.2
20260508233002 82 291 5.0 10.0 0.00 0.00 0.00 76 1011.2
20260508232523 82 280 5.0 11.0 0.00 0.00 0.00 76 1011.2
20260508232023 82 278 5.0 11.0 0.00 0.00 0.00 76 1011.1
20260508231503 82 280 5.0 9.0 0.00 0.00 0.00 75 1011.1
20260508231003 82 280 5.0 10.0 0.00 0.00 0.00 76 1011.1
20260508230523 82 281 6.0 11.0 0.00 0.00 0.00 76 1011.1
20260508230002 82 281 6.0 11.0 0.00 0.00 0.00 75 1011.1
20260508225502 83 281 6.0 10.0 0.00 0.00 0.00 75 1011.1
20260508225003 83 276 6.0 11.0 0.00 0.00 0.00 75 1011.0
20260508224503 83 273 8.0 12.0 0.00 0.00 0.00 75 1010.9
20260508224002 83 274 8.0 12.0 0.00 0.00 0.00 74 1010.8
20260508223504 84 271 7.0 12.0 0.00 0.00 0.00 73 1010.7
20260508223004 84 268 7.0 12.0 0.00 0.00 0.00 71 1010.7
20260508222502 84 273 6.0 11.0 0.00 0.00 0.00 70 1010.7
20260508222002 85 278 5.0 9.0 0.00 0.00 0.00 68 1010.7
20260508221502 85 282 5.0 10.0 0.00 0.00 0.00 68 1010.7
20260508221002 85 283 5.0 10.0 0.00 0.00 0.00 69 1010.7
20260508220524 85 280 5.0 10.0 0.00 0.00 0.00 70 1010.7
20260508220002 84 276 6.0 10.0 0.00 0.00 0.00 72 1010.8
20260508215503 84 278 6.0 10.0 0.00 0.00 0.00 72 1010.9
20260508215023 84 277 6.0 10.0 0.00 0.00 0.00 72 1010.9
20260508214523 84 273 6.0 11.0 0.00 0.00 0.00 73 1010.8
20260508214023 84 274 7.0 11.0 0.00 0.00 0.00 72 1010.9
20260508213523 84 270 6.0 11.0 0.00 0.00 0.00 72 1010.9
20260508213023 84 272 6.0 10.0 0.00 0.00 0.00 71 1011.0
20260508212502 84 275 7.0 12.0 0.00 0.00 0.00 74 1010.9
20260508212002 84 277 7.0 12.0 0.00 0.00 0.00 73 1010.9
20260508211502 84 280 6.0 11.0 0.00 0.00 0.00 73 1011.0
20260508211002 84 276 7.0 11.0 0.00 0.00 0.00 71 1010.9
20260508210524 84 273 7.0 11.0 0.00 0.00 0.00 71 1010.9
20260508210002 85 276 6.0 11.0 0.00 0.00 0.00 69 1010.9
20260508205502 85 277 6.0 11.0 0.00 0.00 0.00 70 1011.0
20260508205003 85 272 7.0 11.0 0.00 0.00 0.00 73 1010.9
20260508204502 84 276 7.0 12.0 0.00 0.00 0.00 71 1010.9
20260508204002 85 277 7.0 12.0 0.00 0.00 0.00 71 1010.9
20260508203502 85 278 7.0 10.0 0.00 0.00 0.00 71 1010.9
20260508203002 85 280 7.0 11.0 0.00 0.00 0.00 71 1011.0
20260508202523 85 281 6.0 11.0 0.00 0.00 0.00 71 1011.1
20260508202002 86 290 6.0 11.0 0.00 0.00 0.00 71 1011.1
20260508201502 85 289 6.0 11.0 0.00 0.00 0.00 71 1011.2
20260508201002 86 287 6.0 11.0 0.00 0.00 0.00 71 1011.3
20260508200503 85 287 7.0 11.0 0.00 0.00 0.00 71 1011.4
20260508200002 85 288 7.0 10.0 0.00 0.00 0.00 70 1011.6
20260508195502 86 284 6.0 11.0 0.00 0.00 0.00 71 1011.6
20260508195023 85 276 8.0 12.0 0.00 0.00 0.00 73 1011.6
20260508194502 84 276 8.0 12.0 0.00 0.00 0.00 73 1011.7
20260508194002 84 281 7.0 12.0 0.00 0.00 0.00 73 1011.8
20260508193502 85 288 7.0 12.0 0.00 0.00 0.00 73 1012.0
20260508193002 85 285 7.0 12.0 0.00 0.00 0.00 73 1012.1
20260508192502 84 284 8.0 12.0 0.00 0.00 0.00 74 1012.2
20260508192002 84 282 8.0 13.0 0.00 0.00 0.00 74 1012.2
20260508191523 84 282 8.0 13.0 0.00 0.00 0.00 74 1012.3
20260508191023 85 288 7.0 13.0 0.00 0.00 0.00 73 1012.4
20260508190502 85 287 7.0 13.0 0.00 0.00 0.00 73 1012.5
20260508190023 85 283 8.0 12.0 0.00 0.00 0.00 74 1012.6
20260508185502 85 288 7.0 12.0 0.00 0.00 0.00 74 1012.6
20260508185002 85 292 6.0 11.0 0.00 0.00 0.00 74 1012.7
20260508184502 85 282 7.0 12.0 0.00 0.00 0.00 73 1012.7
20260508184002 84 281 8.0 14.0 0.00 0.00 0.00 75 1012.8
20260508183502 84 284 8.0 14.0 0.00 0.00 0.00 74 1012.8
20260508183003 84 283 8.0 13.0 0.00 0.00 0.00 74 1013.0
20260508182502 84 281 8.0 13.0 0.00 0.00 0.00 74 1013.1
20260508182003 84 281 7.0 11.0 0.00 0.00 0.00 74 1013.1
20260508181502 86 292 6.0 12.0 0.00 0.00 0.00 73 1013.2
20260508181002 85 292 7.0 13.0 0.00 0.00 0.00 72 1013.4
20260508180502 85 285 7.0 14.0 0.00 0.00 0.00 74 1013.5
20260508180004 84 287 8.0 15.0 0.00 0.00 0.00 73 1013.5
20260508175503 84 281 8.0 15.0 0.00 0.00 0.00 73 1013.6
20260508175002 84 276 8.0 12.0 0.00 0.00 0.00 74 1013.6
20260508174502 84 282 8.0 12.0 0.00 0.00 0.00 74 1013.6
20260508174002 84 284 7.0 12.0 0.00 0.00 0.00 75 1013.7
20260508173503 84 281 8.0 12.0 0.00 0.00 0.00 74 1013.7
20260508173003 84 275 9.0 13.0 0.00 0.00 0.00 75 1013.7
20260508172524 84 275 9.0 13.0 0.00 0.00 0.00 74 1013.8
20260508172023 84 274 8.0 13.0 0.00 0.00 0.00 74 1013.8
20260508171502 84 275 7.0 12.0 0.00 0.00 0.00 74 1013.9
20260508171002 85 279 7.0 11.0 0.00 0.00 0.00 74 1013.9
20260508170502 84 281 7.0 13.0 0.00 0.00 0.00 74 1014.0
20260508170003 85 276 7.0 13.0 0.00 0.00 0.00 74 1014.1
20260508165502 84 272 7.0 12.0 0.00 0.00 0.00 74 1014.2
20260508165002 85 269 7.0 12.0 0.00 0.00 0.00 74 1014.2
20260508164502 84 269 7.0 12.0 0.00 0.00 0.00 75 1014.3
20260508164002 85 270 6.0 12.0 0.00 0.00 0.00 74 1014.3
20260508163503 84 270 7.0 12.0 0.00 0.00 0.00 74 1014.3
20260508163002 84 269 7.0 11.0 0.00 0.00 0.00 75 1014.4
20260508162502 84 272 6.0 12.0 0.00 0.00 0.00 74 1014.5
20260508162023 84 277 6.0 13.0 0.00 0.00 0.00 73 1014.5
20260508161502 84 275 7.0 13.0 0.00 0.00 0.00 73 1014.6
20260508161004 84 275 7.0 11.0 0.00 0.00 0.00 75 1014.8
20260508160502 84 280 6.0 11.0 0.00 0.00 0.00 74 1014.8
20260508160002 84 289 5.0 11.0 0.00 0.00 0.00 74 1014.8
20260508155502 84 289 5.0 11.0 0.00 0.00 0.00 73 1014.8
20260508155024 84 281 5.0 9.0 0.00 0.00 0.00 72 1014.8
20260508154502 84 285 5.0 10.0 0.00 0.00 0.00 74 1014.9
20260508154002 84 286 5.0 10.0 0.00 0.00 0.00 73 1014.9
20260508153523 84 289 5.0 10.0 0.00 0.00 0.00 74 1015.0
20260508153003 83 298 5.0 10.0 0.00 0.00 0.00 74 1015.1
20260508152523 83 296 5.0 10.0 0.00 0.00 0.00 74 1015.1
20260508152002 84 289 5.0 10.0 0.00 0.00 0.00 75 1015.0
20260508151502 84 299 5.0 11.0 0.00 0.00 0.00 74 1015.0
20260508151002 84 301 5.0 11.0 0.00 0.00 0.00 74 1015.1
20260508150502 83 284 6.0 11.0 0.00 0.00 0.00 75 1015.2
20260508150024 83 287 5.0 11.0 0.00 0.00 0.00 74 1015.1
20260508145502 83 289 4.0 9.0 0.00 0.00 0.00 74 1015.1
20260508145003 83 283 4.0 8.0 0.00 0.00 0.00 75 1015.0
20260508144503 83 284 4.0 7.0 0.00 0.00 0.00 75 1015.0
20260508144002 83 274 5.0 10.0 0.00 0.00 0.00 75 1015.0
20260508143502 82 268 4.0 10.0 0.00 0.00 0.00 76 1015.0
20260508143024 82 271 4.0 10.0 0.00 0.00 0.00 76 1015.0
20260508142502 82 283 4.0 7.0 0.00 0.00 0.00 77 1015.1
20260508142002 83 292 4.0 7.0 0.00 0.00 0.00 78 1015.0
20260508141502 82 281 4.0 9.0 0.00 0.00 0.00 78 1015.0
20260508141024 81 278 4.0 9.0 0.00 0.00 0.00 79 1015.0
20260508140502 81 291 4.0 9.0 0.00 0.00 0.00 80 1015.1
20260508140002 81 290 4.0 9.0 0.00 0.00 0.00 80 1015.2
20260508135502 81 288 3.0 7.0 0.00 0.00 0.00 81 1015.1
20260508135006 81 288 3.0 7.0 0.00 0.00 0.00 81 1015.2
20260508134502 80 291 3.0 6.0 0.00 0.00 0.00 82 1015.2
20260508134003 81 293 3.0 6.0 0.00 0.00 0.00 82 1015.2
20260508133502 81 295 4.0 6.0 0.00 0.00 0.00 82 1015.2
20260508133002 80 295 4.0 6.0 0.00 0.00 0.00 83 1015.0
20260508132502 80 291 4.0 6.0 0.00 0.00 0.00 84 1014.9
20260508132023 80 288 4.0 7.0 0.00 0.00 0.00 85 1014.9
20260508131502 79 288 3.0 7.0 0.00 0.00 0.00 85 1014.9
20260508131002 79 289 3.0 5.0 0.00 0.00 0.00 85 1014.8
20260508130502 79 294 3.0 5.0 0.00 0.00 0.00 86 1014.8
20260508130002 79 294 2.0 5.0 0.00 0.00 0.00 86 1014.8
20260508125502 78 287 3.0 6.0 0.00 0.00 0.00 86 1014.8
20260508125003 78 292 2.0 6.0 0.00 0.00 0.00 87 1014.7
20260508124502 78 306 1.0 4.0 0.00 0.00 0.00 89 1014.8
20260508124002 78 298 0.0 1.0 0.00 0.00 0.00 89 1014.7
20260508123523 78 298 0.0 1.0 0.00 0.00 0.00 89 1014.7
20260508123023 77 298 0.0 1.0 0.00 0.00 0.00 89 1014.7
20260508122502 77 0 0.0 0.0 0.00 0.00 0.00 90 1014.6
20260508122002 76 0 0.0 0.0 0.00 0.00 0.00 90 1014.6
20260508121502 76 0 0.0 0.0 0.00 0.00 0.00 90 1014.5
20260508121002 76 0 0.0 0.0 0.00 0.00 0.00 90 1014.4
20260508120502 76 0 0.0 0.0 0.00 0.00 0.00 90 1014.3
20260508120002 75 0 0.0 0.0 0.00 0.00 0.00 90 1014.3
20260508115502 74 0 0.0 0.0 0.00 0.00 0.00 90 1014.3
20260508115023 74 0 0.0 0.0 0.00 0.00 0.00 89 1014.2
20260508114502 73 0 0.0 0.0 0.00 0.00 0.00 89 1014.2
20260508114002 72 0 0.0 0.0 0.00 0.00 0.00 89 1014.2
20260508113502 72 0 0.0 0.0 0.00 0.00 0.00 89 1014.0
20260508113002 72 0 0.0 0.0 0.00 0.00 0.00 89 1013.9
20260508112502 71 0 0.0 0.0 0.00 0.00 0.00 89 1013.8
20260508112023 71 0 0.0 0.0 0.00 0.00 0.00 89 1013.8
20260508111502 71 0 0.0 0.0 0.00 0.00 0.00 89 1013.7
20260508111002 71 0 0.0 0.0 0.00 0.00 0.00 88 1013.7
20260508110502 71 0 0.0 0.0 0.00 0.00 0.00 88 1013.6
20260508110003 71 0 0.0 0.0 0.00 0.00 0.00 88 1013.6
20260508105503 71 0 0.0 0.0 0.00 0.00 0.00 88 1013.4
20260508105023 71 0 0.0 0.0 0.00 0.00 0.00 88 1013.4
20260508104503 71 0 0.0 0.0 0.00 0.00 0.00 88 1013.3
20260508104023 71 0 0.0 0.0 0.00 0.00 0.00 88 1013.3
20260508103502 71 0 0.0 0.0 0.00 0.00 0.00 88 1013.2
20260508103025 71 298 0.0 1.0 0.00 0.00 0.00 88 1013.2
20260508102503 71 298 0.0 1.0 0.00 0.00 0.00 88 1013.1
20260508102002 72 0 0.0 0.0 0.00 0.00 0.00 88 1012.9
20260508101502 72 0 0.0 0.0 0.00 0.00 0.00 88 1012.9
20260508101002 72 0 0.0 0.0 0.00 0.00 0.00 88 1012.8
20260508100502 72 0 0.0 0.0 0.00 0.00 0.00 88 1012.8
20260508100002 72 0 0.0 0.0 0.00 0.00 0.00 88 1012.7
20260508095502 72 0 0.0 0.0 0.00 0.00 0.00 88 1012.7
20260508095024 72 0 0.0 0.0 0.00 0.00 0.00 88 1012.7
20260508094523 72 0 0.0 0.0 0.00 0.00 0.00 88 1012.7
20260508094023 72 0 0.0 0.0 0.00 0.00 0.00 88 1012.7
20260508093502 72 0 0.0 0.0 0.00 0.00 0.00 88 1012.7
20260508093003 72 0 0.0 0.0 0.00 0.00 0.00 88 1012.7
20260508092502 72 0 0.0 0.0 0.00 0.00 0.00 88 1012.7
20260508092002 72 0 0.0 0.0 0.00 0.00 0.00 88 1012.7
20260508091502 73 0 0.0 0.0 0.00 0.00 0.00 88 1012.6
20260508091002 73 298 0.0 1.0 0.00 0.00 0.00 88 1012.6
20260508090502 73 298 0.0 1.0 0.00 0.00 0.00 88 1012.7
20260508090002 73 0 0.0 0.0 0.00 0.00 0.00 88 1012.6
20260508085502 73 0 0.0 0.0 0.00 0.00 0.00 88 1012.5
20260508085002 73 0 0.0 0.0 0.00 0.00 0.00 88 1012.5
20260508084523 74 0 0.0 0.0 0.00 0.00 0.00 88 1012.5
20260508084002 74 0 0.0 0.0 0.00 0.00 0.00 88 1012.4
20260508083502 74 0 0.0 0.0 0.00 0.00 0.00 88 1012.4
20260508083024 74 0 0.0 0.0 0.00 0.00 0.00 88 1012.5
20260508082502 74 0 0.0 0.0 0.00 0.00 0.00 88 1012.5
20260508082002 74 0 0.0 0.0 0.00 0.00 0.00 88 1012.5
20260508081502 74 298 0.0 1.0 0.00 0.00 0.00 88 1012.5
20260508081002 75 298 0.0 1.0 0.00 0.00 0.00 88 1012.5
20260508080503 75 298 0.0 1.0 0.00 0.00 0.00 88 1012.5
20260508080003 75 298 0.0 1.0 0.00 0.00 0.00 89 1012.6
20260508075502 75 0 0.0 0.0 0.00 0.00 0.00 88 1012.6
20260508075003 75 298 0.0 1.0 0.00 0.00 0.00 88 1012.6
20260508074502 75 298 1.0 2.0 0.00 0.00 0.00 89 1012.7
20260508074002 75 298 1.0 2.0 0.00 0.00 0.00 88 1012.7
20260508073502 75 298 1.0 2.0 0.00 0.00 0.00 88 1012.7
20260508073002 75 298 1.0 4.0 0.00 0.00 0.00 88 1012.7
20260508072502 75 298 1.0 4.0 0.00 0.00 0.00 88 1012.7
20260508072002 76 298 0.0 4.0 0.00 0.00 0.00 89 1012.7
20260508071502 76 298 0.0 1.0 0.00 0.00 0.00 89 1012.7
20260508071002 76 298 0.0 2.0 0.00 0.00 0.00 89 1012.7
20260508070502 75 291 1.0 3.0 0.00 0.00 0.00 88 1012.7
20260508070023 75 290 1.0 3.0 0.00 0.00 0.00 88 1012.7
20260508065502 76 293 1.0 3.0 0.00 0.00 0.00 89 1012.7
20260508065002 76 300 0.0 2.0 0.00 0.00 0.00 89 1012.7
20260508064502 76 319 1.0 4.0 0.00 0.00 0.00 89 1012.8
20260508064002 76 319 1.0 4.0 0.00 0.00 0.00 89 1012.9
20260508063502 76 305 1.0 4.0 0.00 0.00 0.00 89 1012.9
20260508063002 76 286 1.0 3.0 0.00 0.00 0.00 89 1012.9
20260508062503 76 287 1.0 3.0 0.00 0.00 0.00 89 1013.0
20260508062023 76 295 1.0 3.0 0.00 0.00 0.00 89 1013.1
20260508061502 76 308 1.0 3.0 0.00 0.00 0.00 89 1013.1
20260508061002 76 306 2.0 3.0 0.00 0.00 0.00 89 1013.1
20260508060523 76 308 1.0 3.0 0.00 0.00 0.00 89 1013.1
20260508060023 76 301 1.0 3.0 0.00 0.00 0.00 89 1013.2
20260508055502 76 279 1.0 3.0 0.00 0.00 0.00 88 1013.2
20260508055002 76 290 2.0 3.0 0.00 0.00 0.00 89 1013.2
20260508054503 76 286 2.0 4.0 0.00 0.00 0.00 89 1013.2
20260508054002 76 272 2.0 4.0 0.00 0.00 0.00 89 1013.3
20260508053523 76 273 3.0 4.0 0.00 0.00 0.00 89 1013.3
20260508053002 76 272 2.0 4.0 0.00 0.00 0.00 89 1013.3
20260508052523 76 267 2.0 3.0 0.00 0.00 0.00 89 1013.3
20260508052002 76 269 2.0 3.0 0.00 0.00 0.00 89 1013.3
20260508051503 76 274 2.0 4.0 0.00 0.00 0.00 88 1013.3
20260508051003 76 277 2.0 4.0 0.00 0.00 0.00 88 1013.4
20260508050502 76 275 2.0 4.0 0.00 0.00 0.00 88 1013.5
20260508050003 76 271 2.0 4.0 0.00 0.00 0.00 88 1013.5
20260508045502 76 275 2.0 4.0 0.00 0.00 0.00 88 1013.5
20260508045023 76 278 2.0 4.0 0.00 0.00 0.00 88 1013.4
20260508044502 77 277 2.0 4.0 0.00 0.00 0.00 88 1013.4
20260508044002 77 275 3.0 5.0 0.00 0.00 0.00 88 1013.4
20260508043502 77 274 3.0 5.0 0.00 0.00 0.00 88 1013.5
20260508043002 77 272 2.0 4.0 0.00 0.00 0.00 88 1013.6
20260508042524 77 269 3.0 4.0 0.00 0.00 0.00 88 1013.6
20260508042003 77 266 2.0 5.0 0.00 0.00 0.00 88 1013.7
20260508041524 77 266 3.0 5.0 0.00 0.00 0.00 88 1013.6
20260508041002 77 271 2.0 4.0 0.00 0.00 0.00 88 1013.7
20260508040502 77 275 2.0 4.0 0.00 0.00 0.00 88 1013.7
20260508040003 77 272 3.0 4.0 0.00 0.00 0.00 88 1013.8
20260508035502 77 272 3.0 4.0 0.00 0.00 0.00 88 1013.8
20260508035003 77 269 3.0 4.0 0.00 0.00 0.00 87 1013.8
20260508034502 77 264 2.0 4.0 0.00 0.00 0.00 87 1013.8
20260508034023 77 269 2.0 3.0 0.00 0.00 0.00 87 1013.8
20260508033502 77 274 2.0 4.0 0.00 0.00 0.00 87 1013.9
20260508033002 77 274 2.0 4.0 0.00 0.00 0.00 87 1013.9
20260508032502 77 274 2.0 3.0 0.00 0.00 0.00 87 1013.8
20260508032002 77 274 2.0 3.0 0.00 0.00 0.00 87 1013.8
20260508031502 77 274 2.0 3.0 0.00 0.00 0.00 87 1013.7
20260508031003 77 274 2.0 3.0 0.00 0.00 0.00 87 1013.7
20260508030502 77 274 1.0 2.0 0.00 0.00 0.00 87 1013.7
20260508030024 77 274 2.0 3.0 0.00 0.00 0.00 87 1013.7
20260508025502 77 274 2.0 4.0 0.00 0.00 0.00 87 1013.7
20260508025002 77 272 2.0 4.0 0.00 0.00 0.00 87 1013.7
20260508024502 77 270 2.0 4.0 0.00 0.00 0.00 86 1013.7
20260508024002 77 269 2.0 4.0 0.00 0.00 0.00 86 1013.7
20260508023502 77 274 2.0 4.0 0.00 0.00 0.00 86 1013.7
20260508023002 77 276 2.0 4.0 0.00 0.00 0.00 86 1013.7
20260508022502 77 272 2.0 4.0 0.00 0.00 0.00 86 1013.6
20260508022003 77 272 3.0 5.0 0.00 0.00 0.00 86 1013.6
20260508021523 77 270 3.0 5.0 0.00 0.00 0.00 86 1013.6
20260508021003 77 271 3.0 5.0 0.00 0.00 0.00 86 1013.7
20260508020502 77 267 2.0 4.0 0.00 0.00 0.00 86 1013.7
20260508020002 77 255 2.0 4.0 0.00 0.00 0.00 86 1013.7
20260508015502 77 252 2.0 4.0 0.00 0.00 0.00 86 1013.6
20260508015003 77 259 2.0 3.0 0.00 0.00 0.00 85 1013.5
20260508014503 78 275 2.0 4.0 0.00 0.00 0.00 85 1013.5
20260508014002 78 283 2.0 4.0 0.00 0.00 0.00 85 1013.4
20260508013503 78 281 2.0 3.0 0.00 0.00 0.00 85 1013.4
20260508013003 78 276 2.0 3.0 0.00 0.00 0.00 85 1013.4